FW7648 Weather Reports


time (UTC)temp
C
wind
direction
speed
KPH
gust
KPH
rain 1hr
cm
rain 24hr
cm
rain mn
cm
humidity
%
barometer
mb
20260505102059 18 136 0.0 6.4 0.00 0.00 0.00 63 1011.1
20260505101557 18 0 1.6 6.4 0.00 0.00 0.00 63 1011.1
20260505101057 18 188 0.0 4.8 0.00 0.00 0.00 63 1011.1
20260505100557 18 0 0.0 6.4 0.00 0.00 0.00 63 1010.9
20260505100058 18 0 0.0 8.0 0.00 0.00 0.00 63 1011.0
20260505095559 18 0 1.6 8.0 0.00 0.00 0.00 63 1010.9
20260505095057 18 0 1.6 12.9 0.00 0.00 0.00 63 1010.9
20260505094556 18 223 1.6 12.9 0.00 0.00 0.00 63 1010.8
20260505094056 18 188 1.6 12.9 0.00 0.00 0.00 63 1010.8
20260505093556 18 180 0.0 9.7 0.00 0.00 0.00 62 1010.5
20260505093058 18 141 1.6 9.7 0.00 0.00 0.00 62 1010.4
20260505092557 18 0 0.0 9.7 0.00 0.00 0.00 62 1010.4
20260505092057 18 163 3.2 9.7 0.00 0.00 0.00 62 1010.5
20260505091618 18 155 1.6 9.7 0.00 0.00 0.00 63 1010.4
20260505091056 18 157 1.6 19.3 0.00 0.00 0.00 62 1010.4
20260505090557 18 192 1.6 19.3 0.00 0.00 0.00 62 1010.3
20260505090120 18 0 3.2 19.3 0.00 0.00 0.00 62 1010.3
20260505085557 18 139 1.6 9.7 0.00 0.00 0.00 63 1010.2
20260505085059 18 205 1.6 9.7 0.00 0.00 0.00 62 1010.1
20260505084615 18 163 3.2 11.3 0.00 0.00 0.00 62 1010.2
20260505084056 18 146 3.2 11.3 0.00 0.00 0.00 62 1010.0
20260505083600 18 158 0.0 4.8 0.00 0.00 0.00 62 1010.2
20260505083110 18 0 1.6 6.4 0.00 0.00 0.00 62 1010.1
20260505082557 18 134 1.6 9.7 0.00 0.00 0.00 62 1010.2
20260505082057 18 171 1.6 9.7 0.00 0.00 0.00 62 1010.1
20260505081604 18 205 1.6 8.0 0.00 0.00 0.00 62 1010.2
20260505081058 18 209 1.6 14.5 0.00 0.00 0.00 62 1010.1
20260505080557 18 0 1.6 14.5 0.00 0.00 0.00 62 1010.0
20260505075558 18 102 1.6 12.9 0.00 0.00 0.00 62 1010.0
20260505075057 18 169 3.2 11.3 0.00 0.00 0.00 62 1010.0
20260505074556 18 274 3.2 9.7 0.00 0.00 0.00 62 1009.9
20260505074057 18 111 1.6 9.7 0.00 0.00 0.00 62 1010.0
20260505073557 18 219 1.6 8.0 0.00 0.00 0.00 62 1009.9
20260505073103 18 126 1.6 8.0 0.00 0.00 0.00 62 1009.8
20260505072558 18 171 1.6 9.7 0.00 0.00 0.00 61 1009.9
20260505072058 18 150 1.6 9.7 0.00 0.00 0.00 61 1009.8
20260505071613 18 155 1.6 11.3 0.00 0.00 0.00 61 1009.8
20260505071101 19 137 3.2 12.9 0.00 0.00 0.00 61 1009.8
20260505070558 19 234 3.2 12.9 0.00 0.00 0.00 61 1009.8
20260505070059 19 153 1.6 12.9 0.00 0.00 0.00 61 1009.8
20260505065557 19 124 1.6 12.9 0.00 0.00 0.00 61 1009.9
20260505065057 18 136 3.2 11.3 0.00 0.00 0.00 61 1009.8
20260505064603 19 76 1.6 11.3 0.00 0.00 0.00 61 1009.9
20260505064057 19 212 1.6 11.3 0.00 0.00 0.00 60 1009.9
20260505063600 18 153 3.2 11.3 0.00 0.00 0.00 60 1010.0
20260505063100 18 232 3.2 12.9 0.00 0.00 0.00 60 1009.9
20260505062557 18 132 1.6 12.9 0.00 0.00 0.00 61 1009.9
20260505062056 18 146 3.2 12.9 0.00 0.00 0.00 61 1009.9
20260505061559 18 158 1.6 6.4 0.00 0.00 0.00 61 1010.2
20260505061056 18 0 1.6 8.0 0.00 0.00 0.00 61 1010.0
20260505060558 18 132 1.6 9.7 0.00 0.00 0.00 61 1010.0
20260505055558 18 119 1.6 8.0 0.00 0.00 0.00 62 1010.0
20260505055059 18 161 0.0 4.8 0.00 0.00 0.00 62 1010.1
20260505054557 18 133 1.6 4.8 0.00 0.00 0.00 62 1010.1
20260505054057 18 0 0.0 3.2 0.00 0.00 0.00 62 1010.0
20260505053557 18 139 0.0 4.8 0.00 0.00 0.00 63 1009.9
20260505053059 18 0 0.0 4.8 0.00 0.00 0.00 63 1010.0
20260505052557 17 139 0.0 4.8 0.00 0.00 0.00 65 1010.0
20260505052057 17 128 1.6 4.8 0.00 0.00 0.00 66 1010.0
20260505051556 17 0 0.0 3.2 0.00 0.00 0.00 68 1010.1
20260505051057 17 0 0.0 3.2 0.00 0.00 0.00 69 1010.1
20260505050557 16 0 0.0 1.6 0.00 0.00 0.00 71 1009.9
20260505041604 16 0 0.0 1.6 0.00 0.00 0.00 73 1009.7
20260505041056 16 0 0.0 1.6 0.00 0.00 0.00 73 1009.6
20260505040556 16 0 0.0 0.0 0.00 0.00 0.00 73 1009.6
20260505040058 16 0 0.0 1.6 0.00 0.00 0.00 75 1009.6
20260505035556 16 0 0.0 1.6 0.00 0.00 0.00 74 1009.6
20260505035058 16 0 0.0 1.6 0.00 0.00 0.00 72 1009.5
20260505034554 16 0 0.0 1.6 0.00 0.00 0.00 73 1009.5
20260505034056 16 0 0.0 1.6 0.00 0.00 0.00 73 1009.6
20260505033556 16 0 0.0 0.0 0.00 0.00 0.00 73 1009.5
20260505033055 16 0 0.0 3.2 0.00 0.00 0.00 73 1009.5
20260505032556 16 0 0.0 3.2 0.00 0.00 0.00 73 1009.5
20260505032056 16 136 0.0 0.0 0.00 0.00 0.00 74 1009.4
20260505031556 16 0 0.0 0.0 0.00 0.00 0.00 75 1009.4
20260505031056 16 0 0.0 0.0 0.00 0.00 0.00 76 1009.3
20260505030556 15 0 0.0 0.0 0.00 0.00 0.00 78 1009.3
20260505030117 15 0 0.0 0.0 0.00 0.00 0.00 79 1009.3
20260505025556 15 0 0.0 0.0 0.00 0.00 0.00 80 1009.2
20260505025100 15 0 0.0 0.0 0.00 0.00 0.00 80 1009.4
20260505024600 15 0 0.0 0.0 0.00 0.00 0.00 80 1009.3
20260505024056 15 0 0.0 0.0 0.00 0.00 0.00 79 1009.3
20260505023557 15 0 0.0 0.0 0.00 0.00 0.00 79 1009.3
20260505023055 16 0 0.0 0.0 0.00 0.00 0.00 77 1009.3
20260505022557 16 0 0.0 1.6 0.00 0.00 0.00 75 1009.2
20260505022059 16 0 0.0 1.6 0.00 0.00 0.00 74 1009.2
20260505021557 16 0 0.0 1.6 0.00 0.00 0.00 74 1009.1
20260505021055 17 0 0.0 1.6 0.00 0.00 0.00 72 1009.1
20260505020556 17 0 0.0 1.6 0.00 0.00 0.00 72 1009.2
20260505020101 17 0 0.0 0.0 0.00 0.00 0.00 72 1009.1
20260505015558 17 0 0.0 0.0 0.00 0.00 0.00 72 1009.2
20260505015057 17 0 0.0 0.0 0.00 0.00 0.00 73 1009.1
20260505014609 17 0 0.0 0.0 0.00 0.00 0.00 74 1009.1
20260505014059 16 0 0.0 0.0 0.00 0.00 0.00 75 1009.0
20260505013557 16 0 0.0 0.0 0.00 0.00 0.00 75 1009.0
20260505013058 17 0 0.0 0.0 0.00 0.00 0.00 75 1008.9
20260505012557 17 0 0.0 0.0 0.00 0.00 0.00 74 1009.1
20260505012153 17 0 0.0 0.0 0.00 0.00 0.00 73 1009.0
20260505011558 18 0 0.0 0.0 0.00 0.00 0.00 70 1009.0
20260505011101 18 0 0.0 0.0 0.00 0.00 0.00 70 1009.0
20260505010557 18 0 0.0 0.0 0.00 0.00 0.00 70 1008.9
20260505005601 18 0 0.0 1.6 0.00 0.00 0.00 68 1009.0
20260505005057 19 0 0.0 1.6 0.00 0.00 0.00 67 1008.8
20260505004555 19 0 0.0 1.6 0.00 0.00 0.00 67 1008.8
20260505004100 19 0 0.0 0.0 0.00 0.00 0.00 67 1008.9
20260505003556 20 0 0.0 0.0 0.00 0.00 0.00 66 1008.8
20260505003059 20 0 0.0 0.0 0.00 0.00 0.00 66 1008.8
20260505002556 20 0 0.0 1.6 0.00 0.00 0.00 64 1008.8
20260505002057 20 0 0.0 1.6 0.00 0.00 0.00 64 1008.9
20260505001559 20 0 0.0 1.6 0.00 0.00 0.00 63 1008.9
20260505001057 21 0 0.0 1.6 0.00 0.00 0.00 62 1009.0
20260505000557 21 0 0.0 1.6 0.00 0.00 0.00 61 1009.0
20260505000059 21 0 0.0 1.6 0.00 0.00 0.00 60 1009.0
20260504235557 21 0 0.0 1.6 0.00 0.00 0.00 60 1009.0
20260504235057 22 0 0.0 1.6 0.00 0.00 0.00 59 1008.9
20260504234555 22 0 0.0 3.2 0.00 0.00 0.00 59 1009.1
20260504234057 22 0 0.0 3.2 0.00 0.00 0.00 58 1009.1
20260504233557 22 0 0.0 3.2 0.00 0.00 0.00 57 1009.2
20260504233059 22 0 0.0 4.8 0.00 0.00 0.00 56 1009.2
20260504232559 22 0 0.0 4.8 0.00 0.00 0.00 56 1009.1
20260504232059 22 157 1.6 8.0 0.00 0.00 0.00 56 1009.0
20260504231556 22 145 1.6 8.0 0.00 0.00 0.00 56 1009.0
20260504231056 22 0 0.0 3.2 0.00 0.00 0.00 56 1009.1
20260504230600 22 0 0.0 3.2 0.00 0.00 0.00 56 1009.3
20260504230055 22 0 0.0 3.2 0.00 0.00 0.00 56 1009.4
20260504225557 22 165 0.0 4.8 0.00 0.00 0.00 56 1009.5
20260504225056 22 0 0.0 8.0 0.00 0.00 0.00 57 1009.6
20260504224555 22 234 3.2 8.0 0.00 0.00 0.00 55 1009.7
20260504224100 22 160 0.0 4.8 0.00 0.00 0.00 56 1009.8
20260504223601 22 107 0.0 3.2 0.00 0.00 0.00 57 1009.9
20260504223117 22 0 0.0 3.2 0.00 0.00 0.00 55 1009.9
20260504222557 22 108 1.6 3.2 0.00 0.00 0.00 55 1009.9
20260504222058 23 0 0.0 4.8 0.00 0.00 0.00 55 1010.0
20260504221555 23 159 0.0 4.8 0.00 0.00 0.00 55 1009.9
20260504221057 23 205 1.6 4.8 0.00 0.00 0.00 55 1010.1
20260504220557 23 129 0.0 4.8 0.00 0.00 0.00 55 1010.1
20260504215558 23 291 1.6 8.0 0.00 0.00 0.00 55 1010.0
20260504215057 22 238 1.6 12.9 0.00 0.00 0.00 56 1010.1
20260504214555 22 215 1.6 12.9 0.00 0.00 0.00 56 1010.2
20260504214100 22 265 3.2 11.3 0.00 0.00 0.00 55 1010.2
20260504213556 22 268 4.8 11.3 0.00 0.00 0.00 54 1010.3
20260504213106 22 298 1.6 11.3 0.00 0.00 0.00 55 1010.3
20260504212555 22 244 3.2 11.3 0.00 0.00 0.00 55 1010.4
20260504212058 22 184 0.0 11.3 0.00 0.00 0.00 54 1010.4
20260504211649 22 294 1.6 11.3 0.00 0.00 0.00 58 1010.3
20260504211059 21 201 4.8 14.5 0.00 0.00 0.00 57 1010.3
20260504210601 21 318 3.2 14.5 0.00 0.00 0.00 57 1010.2
20260504210056 22 351 6.4 12.9 0.00 0.00 0.00 56 1010.2
20260504205601 21 286 4.8 9.7 0.00 0.00 0.00 58 1010.2
20260504205056 21 238 3.2 12.9 0.00 0.00 0.00 58 1010.4
20260504204603 21 279 1.6 12.9 0.00 0.00 0.00 60 1010.3
20260504204057 21 306 1.6 12.9 0.00 0.00 0.00 58 1010.3
20260504203556 21 263 3.2 14.5 0.00 0.00 0.00 60 1010.3
20260504203107 21 200 1.6 14.5 0.00 0.00 0.00 61 1010.4
20260504202557 21 182 3.2 12.9 0.00 0.00 0.00 60 1010.2
20260504202057 21 259 3.2 16.1 0.00 0.00 0.00 57 1010.2
20260504201611 22 284 3.2 16.1 0.00 0.00 0.00 53 1009.9
20260504201056 22 338 4.8 16.1 0.00 0.00 0.00 52 1009.5
20260504200556 22 355 6.4 17.7 0.00 0.00 0.00 55 1009.9
20260504200057 22 286 3.2 17.7 0.00 0.00 0.00 54 1010.0
20260504195557 22 290 4.8 14.5 0.00 0.00 0.00 53 1009.9
20260504195057 22 197 4.8 14.5 0.00 0.00 0.00 53 1009.9
20260504194557 22 268 3.2 12.9 0.00 0.00 0.00 53 1010.0
20260504194057 22 0 4.8 16.1 0.00 0.00 0.00 53 1010.0
20260504193557 22 307 6.4 16.1 0.00 0.00 0.00 54 1010.0
20260504193107 22 223 4.8 16.1 0.00 0.00 0.00 54 1010.2
20260504192556 22 298 4.8 16.1 0.00 0.00 0.00 54 1010.2
20260504192056 22 214 3.2 12.9 0.00 0.00 0.00 54 1010.1
20260504191611 22 306 3.2 16.1 0.00 0.00 0.00 54 1010.2
20260504191058 22 303 1.6 16.1 0.00 0.00 0.00 55 1010.3
20260504190558 22 177 4.8 14.5 0.00 0.00 0.00 54 1010.5
20260504190109 22 237 3.2 12.9 0.00 0.00 0.00 53 1010.6
20260504185557 22 277 4.8 19.3 0.00 0.00 0.00 53 1010.6
20260504185100 22 256 3.2 19.3 0.00 0.00 0.00 53 1010.7
20260504184556 22 257 3.2 12.9 0.00 0.00 0.00 54 1010.7
20260504184057 22 140 3.2 16.1 0.00 0.00 0.00 56 1010.8
20260504183600 22 180 1.6 16.1 0.00 0.00 0.00 55 1010.9
20260504183057 21 201 4.8 16.1 0.00 0.00 0.00 54 1011.0
20260504182558 21 216 1.6 14.5 0.00 0.00 0.00 56 1011.0
20260504182057 21 94 4.8 14.5 0.00 0.00 0.00 56 1011.0
20260504181603 21 116 1.6 12.9 0.00 0.00 0.00 58 1011.2
20260504181058 21 0 3.2 12.9 0.00 0.00 0.00 57 1011.2
20260504180557 21 236 3.2 12.9 0.00 0.00 0.00 57 1011.1
20260504180056 21 265 3.2 14.5 0.00 0.00 0.00 55 1011.1
20260504175559 21 115 4.8 14.5 0.00 0.00 0.00 55 1011.2
20260504175057 22 140 4.8 14.5 0.00 0.00 0.00 54 1011.1
20260504174556 21 147 3.2 16.1 0.00 0.00 0.00 57 1011.0
20260504174058 21 150 3.2 16.1 0.00 0.00 0.00 57 1011.0
20260504173600 21 306 4.8 12.9 0.00 0.00 0.00 56 1011.0
20260504173059 21 245 4.8 16.1 0.00 0.00 0.00 56 1011.0
20260504172557 21 252 3.2 16.1 0.00 0.00 0.00 59 1011.0
20260504172057 21 186 4.8 17.7 0.00 0.00 0.00 58 1011.2
20260504171557 21 281 4.8 17.7 0.00 0.00 0.00 59 1011.3
20260504171057 20 119 6.4 16.1 0.00 0.00 0.00 60 1011.5
20260504170558 20 215 3.2 12.9 0.00 0.00 0.00 60 1011.5
20260504151101 17 171 6.4 14.5 0.00 0.00 0.00 62 1013.1
20260504150557 17 198 3.2 11.3 0.00 0.00 0.00 63 1013.2
20260504141056 15 146 3.2 16.1 0.00 0.00 0.00 63 1013.7
20260504140556 15 169 3.2 17.7 0.00 0.00 0.00 62 1013.7
20260504130557 15 234 1.6 6.4 0.00 0.00 0.00 61 1013.4
20260504120103 12 161 1.6 11.3 0.00 0.00 0.00 65 1013.5
20260504110556 8 134 0.0 1.6 0.00 0.00 0.00 76 1013.3